| time (UTC) | temp C | wind direction | speed KPH | gust KPH | rain 1hr cm | rain 24hr cm | rain mn cm | humidity % | barometer mb |
| 20260506085931 | 14 | 22 | 4.8 | 9.7 | 0.00 | 0.00 | 0.00 | 73 | 993.9 |
| 20260506085431 | 14 | 32 | 3.2 | 9.7 | 0.00 | 0.00 | 0.00 | 73 | 993.6 |
| 20260506084931 | 14 | 24 | 3.2 | 9.7 | 0.00 | 0.00 | 0.00 | 73 | 993.9 |
| 20260506084432 | 14 | 335 | 4.8 | 11.3 | 0.00 | 0.00 | 0.00 | 73 | 993.6 |
| 20260506083931 | 14 | 21 | 6.4 | 9.7 | 0.00 | 0.00 | 0.00 | 73 | 993.6 |
| 20260506083432 | 14 | 333 | 4.8 | 9.7 | 0.00 | 0.00 | 0.00 | 74 | 993.6 |
| 20260506082931 | 15 | 329 | 3.2 | 12.9 | 0.00 | 0.00 | 0.00 | 73 | 993.6 |
| 20260506082434 | 15 | 356 | 3.2 | 9.7 | 0.00 | 0.00 | 0.00 | 74 | 993.6 |
| 20260506081932 | 15 | 346 | 9.7 | 12.9 | 0.00 | 0.00 | 0.00 | 74 | 993.6 |
| 20260506081432 | 15 | 42 | 4.8 | 9.7 | 0.00 | 0.00 | 0.00 | 74 | 993.6 |
| 20260506080931 | 15 | 354 | 0.0 | 4.8 | 0.00 | 0.00 | 0.00 | 74 | 993.9 |
| 20260506080431 | 15 | 312 | 8.0 | 9.7 | 0.00 | 0.00 | 0.00 | 74 | 993.6 |
| 20260506073431 | 15 | 44 | 6.4 | 12.9 | 0.00 | 0.00 | 0.00 | 74 | 992.9 |
| 20260506072931 | 15 | 61 | 6.4 | 8.0 | 0.00 | 0.00 | 0.00 | 74 | 992.9 |
| 20260506072431 | 15 | 79 | 3.2 | 6.4 | 0.00 | 0.00 | 0.00 | 74 | 993.2 |
| 20260506071931 | 15 | 38 | 9.7 | 11.3 | 0.00 | 0.00 | 0.00 | 74 | 992.9 |
| 20260506071432 | 15 | 322 | 16.1 | 16.1 | 0.00 | 0.00 | 0.00 | 74 | 993.2 |
| 20260506070931 | 15 | 2 | 4.8 | 9.7 | 0.00 | 0.00 | 0.00 | 74 | 993.2 |
| 20260506070432 | 15 | 41 | 11.3 | 12.9 | 0.00 | 0.00 | 0.00 | 74 | 993.2 |
| 20260506062431 | 15 | 82 | 4.8 | 12.9 | 0.00 | 0.00 | 0.00 | 75 | 992.9 |
| 20260506061931 | 15 | 358 | 3.2 | 11.3 | 0.00 | 0.00 | 0.00 | 76 | 992.9 |
| 20260506061431 | 15 | 25 | 6.4 | 14.5 | 0.00 | 0.00 | 0.00 | 76 | 993.2 |
| 20260506060931 | 15 | 65 | 4.8 | 11.3 | 0.00 | 0.00 | 0.00 | 76 | 993.2 |
| 20260506060432 | 15 | 19 | 8.0 | 14.5 | 0.00 | 0.00 | 0.00 | 76 | 993.2 |
| 20260506050931 | 16 | 6 | 8.0 | 22.5 | 0.00 | 0.00 | 0.00 | 76 | 993.6 |
| 20260506050431 | 16 | 303 | 6.4 | 16.1 | 0.00 | 0.00 | 0.00 | 76 | 993.2 |
| 20260506044931 | 16 | 315 | 9.7 | 14.5 | 0.00 | 0.00 | 0.00 | 76 | 993.2 |
| 20260506044431 | 16 | 14 | 8.0 | 11.3 | 0.00 | 0.00 | 0.00 | 75 | 992.9 |
| 20260506043931 | 16 | 298 | 6.4 | 12.9 | 0.00 | 0.00 | 0.00 | 75 | 993.2 |
| 20260506043432 | 16 | 342 | 4.8 | 14.5 | 0.00 | 0.00 | 0.00 | 75 | 993.2 |
| 20260506042932 | 17 | 306 | 9.7 | 14.5 | 0.00 | 0.00 | 0.00 | 75 | 993.2 |
| 20260506042433 | 17 | 321 | 8.0 | 22.5 | 0.00 | 0.00 | 0.00 | 75 | 992.9 |
| 20260506041931 | 17 | 305 | 6.4 | 19.3 | 0.00 | 0.00 | 0.00 | 75 | 992.9 |
| 20260506041431 | 17 | 312 | 8.0 | 12.9 | 0.00 | 0.00 | 0.00 | 75 | 993.2 |
| 20260506040931 | 17 | 340 | 8.0 | 16.1 | 0.00 | 0.00 | 0.00 | 75 | 992.9 |
| 20260506040433 | 17 | 294 | 6.4 | 12.9 | 0.00 | 0.00 | 0.00 | 75 | 992.9 |
| 20260506035932 | 17 | 349 | 9.7 | 19.3 | 0.00 | 0.00 | 0.00 | 74 | 992.9 |
| 20260506035431 | 17 | 347 | 9.7 | 11.3 | 0.00 | 0.00 | 0.00 | 74 | 992.6 |
| 20260506034931 | 18 | 16 | 8.0 | 14.5 | 0.00 | 0.00 | 0.00 | 74 | 992.6 |
| 20260506034431 | 18 | 69 | 3.2 | 16.1 | 0.00 | 0.00 | 0.00 | 74 | 992.2 |
| 20260506033933 | 18 | 35 | 8.0 | 14.5 | 0.00 | 0.00 | 0.00 | 74 | 992.2 |
| 20260506033432 | 18 | 346 | 4.8 | 9.7 | 0.00 | 0.00 | 0.00 | 74 | 992.6 |
| 20260506032931 | 18 | 15 | 9.7 | 14.5 | 0.00 | 0.00 | 0.00 | 73 | 991.9 |
| 20260506032432 | 18 | 20 | 11.3 | 12.9 | 0.00 | 0.00 | 0.00 | 73 | 992.2 |
| 20260506031931 | 18 | 355 | 4.8 | 20.9 | 0.00 | 0.00 | 0.00 | 73 | 991.9 |
| 20260506031431 | 18 | 0 | 11.3 | 22.5 | 0.00 | 0.00 | 0.00 | 73 | 992.2 |
| 20260506030931 | 18 | 0 | 6.4 | 14.5 | 0.00 | 0.00 | 0.00 | 73 | 992.2 |
| 20260506030432 | 18 | 323 | 6.4 | 14.5 | 0.00 | 0.00 | 0.00 | 72 | 991.9 |
| 20260506025933 | 19 | 313 | 8.0 | 19.3 | 0.00 | 0.00 | 0.00 | 72 | 991.9 |
| 20260506025432 | 20 | 328 | 6.4 | 19.3 | 0.00 | 0.00 | 0.00 | 72 | 991.5 |
| 20260506024932 | 20 | 325 | 6.4 | 22.5 | 0.00 | 0.00 | 0.00 | 71 | 991.5 |
| 20260506024439 | 20 | 292 | 6.4 | 16.1 | 0.00 | 0.00 | 0.00 | 71 | 991.5 |
| 20260506023931 | 20 | 330 | 4.8 | 14.5 | 0.00 | 0.00 | 0.00 | 71 | 991.5 |
| 20260506023431 | 20 | 320 | 8.0 | 11.3 | 0.00 | 0.00 | 0.00 | 70 | 991.2 |
| 20260506022931 | 20 | 329 | 8.0 | 11.3 | 0.00 | 0.00 | 0.00 | 70 | 991.2 |
| 20260506022431 | 20 | 333 | 9.7 | 16.1 | 0.00 | 0.00 | 0.00 | 69 | 990.9 |
| 20260506021931 | 20 | 333 | 4.8 | 11.3 | 0.00 | 0.00 | 0.00 | 69 | 990.9 |
| 20260506021432 | 20 | 311 | 4.8 | 8.0 | 0.00 | 0.00 | 0.00 | 69 | 990.9 |
| 20260506020931 | 20 | 323 | 6.4 | 12.9 | 0.00 | 0.00 | 0.00 | 68 | 990.5 |
| 20260506020431 | 20 | 318 | 14.5 | 14.5 | 0.00 | 0.00 | 0.00 | 68 | 990.9 |
| 20260506015932 | 20 | 351 | 4.8 | 12.9 | 0.00 | 0.00 | 0.00 | 68 | 990.5 |
| 20260506015431 | 20 | 321 | 6.4 | 11.3 | 0.00 | 0.00 | 0.00 | 68 | 990.2 |
| 20260506014931 | 20 | 12 | 4.8 | 12.9 | 0.00 | 0.00 | 0.00 | 68 | 989.8 |
| 20260506014431 | 20 | 296 | 3.2 | 11.3 | 0.00 | 0.00 | 0.00 | 68 | 990.2 |
| 20260506013931 | 20 | 354 | 6.4 | 11.3 | 0.00 | 0.00 | 0.00 | 68 | 990.2 |
| 20260506013431 | 20 | 320 | 6.4 | 11.3 | 0.00 | 0.00 | 0.00 | 68 | 989.8 |
| 20260506012932 | 21 | 293 | 4.8 | 14.5 | 0.00 | 0.00 | 0.00 | 67 | 989.8 |
| 20260506012431 | 21 | 341 | 4.8 | 17.7 | 0.00 | 0.00 | 0.00 | 67 | 989.8 |
| 20260506011931 | 21 | 9 | 6.4 | 9.7 | 0.00 | 0.00 | 0.00 | 66 | 990.2 |
| 20260506011431 | 21 | 4 | 6.4 | 11.3 | 0.00 | 0.00 | 0.00 | 66 | 989.8 |
| 20260506010931 | 21 | 319 | 1.6 | 6.4 | 0.00 | 0.00 | 0.00 | 66 | 989.8 |
| 20260506010432 | 22 | 321 | 4.8 | 6.4 | 0.00 | 0.00 | 0.00 | 65 | 989.8 |
| 20260506005932 | 22 | 16 | 4.8 | 12.9 | 0.00 | 0.00 | 0.00 | 64 | 989.5 |
| 20260506005431 | 22 | 306 | 8.0 | 17.7 | 0.00 | 0.00 | 0.00 | 64 | 989.5 |
| 20260506004932 | 22 | 0 | 11.3 | 19.3 | 0.00 | 0.00 | 0.00 | 65 | 989.5 |
| 20260506004432 | 22 | 318 | 3.2 | 14.5 | 0.00 | 0.00 | 0.00 | 66 | 989.5 |
| 20260506003932 | 22 | 7 | 4.8 | 11.3 | 0.00 | 0.00 | 0.00 | 65 | 988.8 |
| 20260506003432 | 22 | 347 | 4.8 | 16.1 | 0.00 | 0.00 | 0.00 | 65 | 988.5 |
| 20260506002933 | 22 | 309 | 11.3 | 14.5 | 0.00 | 0.00 | 0.00 | 64 | 988.8 |
| 20260506002431 | 22 | 310 | 9.7 | 14.5 | 0.00 | 0.00 | 0.00 | 64 | 988.8 |
| 20260506001932 | 22 | 11 | 9.7 | 11.3 | 0.00 | 0.00 | 0.00 | 65 | 988.8 |
| 20260506001431 | 23 | 321 | 9.7 | 17.7 | 0.00 | 0.00 | 0.00 | 64 | 988.5 |
| 20260506000931 | 23 | 332 | 9.7 | 20.9 | 0.00 | 0.00 | 0.00 | 64 | 988.5 |
| 20260506000431 | 23 | 337 | 11.3 | 24.1 | 0.00 | 0.00 | 0.00 | 63 | 988.5 |
| 20260505235931 | 23 | 300 | 6.4 | 14.5 | 0.00 | 0.00 | 0.00 | 63 | 988.5 |
| 20260505235432 | 24 | 318 | 9.7 | 20.9 | 0.00 | 0.00 | 0.00 | 62 | 988.5 |
| 20260505234931 | 25 | 1 | 8.0 | 22.5 | 0.00 | 0.00 | 0.00 | 60 | 988.5 |
| 20260505234431 | 25 | 303 | 12.9 | 14.5 | 0.00 | 0.00 | 0.00 | 60 | 988.5 |
| 20260505233932 | 25 | 290 | 11.3 | 16.1 | 0.00 | 0.00 | 0.00 | 60 | 988.1 |
| 20260505233433 | 25 | 307 | 9.7 | 14.5 | 0.00 | 0.00 | 0.00 | 60 | 988.1 |
| 20260505232931 | 26 | 322 | 14.5 | 19.3 | 0.00 | 0.00 | 0.00 | 59 | 988.1 |
| 20260505232431 | 26 | 295 | 6.4 | 12.9 | 0.00 | 0.00 | 0.00 | 59 | 988.5 |
| 20260505231931 | 26 | 315 | 6.4 | 20.9 | 0.00 | 0.00 | 0.00 | 59 | 988.5 |
| 20260505231431 | 26 | 281 | 9.7 | 22.5 | 0.00 | 0.00 | 0.00 | 57 | 988.1 |
| 20260505230931 | 27 | 351 | 8.0 | 17.7 | 0.00 | 0.00 | 0.00 | 56 | 987.8 |
| 20260505230431 | 27 | 310 | 11.3 | 17.7 | 0.00 | 0.00 | 0.00 | 55 | 987.8 |
| 20260505225932 | 27 | 303 | 11.3 | 20.9 | 0.00 | 0.00 | 0.00 | 55 | 987.8 |
| 20260505225431 | 27 | 305 | 8.0 | 16.1 | 0.00 | 0.00 | 0.00 | 54 | 987.8 |
| 20260505224931 | 27 | 311 | 12.9 | 17.7 | 0.00 | 0.00 | 0.00 | 53 | 987.8 |
| 20260505224431 | 28 | 315 | 11.3 | 19.3 | 0.00 | 0.00 | 0.00 | 53 | 987.5 |
| 20260505223932 | 28 | 283 | 6.4 | 19.3 | 0.00 | 0.00 | 0.00 | 53 | 987.5 |
| 20260505223431 | 28 | 308 | 8.0 | 17.7 | 0.00 | 0.00 | 0.00 | 52 | 987.5 |
| 20260505222931 | 28 | 315 | 9.7 | 16.1 | 0.00 | 0.00 | 0.00 | 50 | 987.5 |
| 20260505222431 | 28 | 319 | 11.3 | 14.5 | 0.00 | 0.00 | 0.00 | 48 | 987.5 |
| 20260505221933 | 28 | 295 | 4.8 | 14.5 | 0.00 | 0.00 | 0.00 | 47 | 987.5 |
| 20260505221432 | 28 | 289 | 8.0 | 20.9 | 0.00 | 0.00 | 0.00 | 47 | 987.1 |
| 20260505220931 | 29 | 281 | 14.5 | 17.7 | 0.00 | 0.00 | 0.00 | 47 | 987.5 |
| 20260505220431 | 29 | 318 | 9.7 | 14.5 | 0.00 | 0.00 | 0.00 | 45 | 987.1 |
| 20260505215932 | 30 | 297 | 11.3 | 19.3 | 0.00 | 0.00 | 0.00 | 45 | 986.8 |
| 20260505215431 | 30 | 304 | 4.8 | 14.5 | 0.00 | 0.00 | 0.00 | 47 | 987.1 |
| 20260505214932 | 30 | 314 | 16.1 | 17.7 | 0.00 | 0.00 | 0.00 | 46 | 987.1 |
| 20260505214431 | 31 | 341 | 8.0 | 20.9 | 0.00 | 0.00 | 0.00 | 44 | 987.5 |
| 20260505213931 | 31 | 307 | 11.3 | 14.5 | 0.00 | 0.00 | 0.00 | 47 | 987.1 |
| 20260505213432 | 31 | 284 | 11.3 | 12.9 | 0.00 | 0.00 | 0.00 | 47 | 987.1 |
| 20260505212931 | 31 | 272 | 6.4 | 11.3 | 0.00 | 0.00 | 0.00 | 48 | 987.1 |
| 20260505212431 | 31 | 268 | 6.4 | 9.7 | 0.00 | 0.00 | 0.00 | 47 | 986.8 |
| 20260505211931 | 31 | 294 | 6.4 | 9.7 | 0.00 | 0.00 | 0.00 | 48 | 987.1 |
| 20260505211431 | 31 | 285 | 6.4 | 14.5 | 0.00 | 0.00 | 0.00 | 46 | 987.1 |
| 20260505210931 | 31 | 306 | 11.3 | 17.7 | 0.00 | 0.00 | 0.00 | 47 | 987.5 |
| 20260505210432 | 31 | 270 | 9.7 | 17.7 | 0.00 | 0.00 | 0.00 | 47 | 987.5 |
| 20260505205932 | 31 | 260 | 14.5 | 17.7 | 0.00 | 0.00 | 0.00 | 48 | 987.5 |
| 20260505205431 | 31 | 258 | 9.7 | 14.5 | 0.00 | 0.00 | 0.00 | 48 | 987.5 |
| 20260505204931 | 31 | 265 | 8.0 | 20.9 | 0.00 | 0.00 | 0.00 | 46 | 987.5 |
| 20260505204432 | 31 | 285 | 14.5 | 16.1 | 0.00 | 0.00 | 0.00 | 48 | 987.1 |
| 20260505203933 | 31 | 275 | 4.8 | 9.7 | 0.00 | 0.00 | 0.00 | 49 | 987.5 |
| 20260505203431 | 31 | 282 | 14.5 | 14.5 | 0.00 | 0.00 | 0.00 | 48 | 987.8 |
| 20260505202932 | 31 | 273 | 14.5 | 16.1 | 0.00 | 0.00 | 0.00 | 50 | 987.5 |
| 20260505202431 | 31 | 260 | 11.3 | 16.1 | 0.00 | 0.00 | 0.00 | 50 | 987.5 |
| 20260505201931 | 31 | 281 | 14.5 | 19.3 | 0.00 | 0.00 | 0.00 | 52 | 987.8 |
| 20260505201431 | 30 | 267 | 6.4 | 14.5 | 0.00 | 0.00 | 0.00 | 53 | 987.8 |
| 20260505200931 | 31 | 262 | 8.0 | 16.1 | 0.00 | 0.00 | 0.00 | 50 | 987.8 |
| 20260505200431 | 30 | 247 | 4.8 | 8.0 | 0.00 | 0.00 | 0.00 | 53 | 987.8 |
| 20260505195931 | 30 | 271 | 12.9 | 14.5 | 0.00 | 0.00 | 0.00 | 52 | 988.1 |
| 20260505195431 | 30 | 287 | 12.9 | 14.5 | 0.00 | 0.00 | 0.00 | 53 | 987.8 |
| 20260505194932 | 30 | 248 | 4.8 | 9.7 | 0.00 | 0.00 | 0.00 | 54 | 987.8 |
| 20260505194432 | 30 | 286 | 6.4 | 11.3 | 0.00 | 0.00 | 0.00 | 55 | 987.8 |
| 20260505193931 | 30 | 203 | 4.8 | 8.0 | 0.00 | 0.00 | 0.00 | 56 | 988.1 |
| 20260505193433 | 30 | 258 | 4.8 | 11.3 | 0.00 | 0.00 | 0.00 | 57 | 988.1 |
| 20260505192931 | 30 | 245 | 8.0 | 9.7 | 0.00 | 0.00 | 0.00 | 58 | 988.1 |
| 20260505192431 | 29 | 218 | 6.4 | 11.3 | 0.00 | 0.00 | 0.00 | 58 | 988.1 |
| 20260505191932 | 29 | 248 | 6.4 | 8.0 | 0.00 | 0.00 | 0.00 | 58 | 988.1 |
| 20260505191431 | 28 | 219 | 4.8 | 8.0 | 0.00 | 0.00 | 0.00 | 58 | 988.1 |
| 20260505190931 | 28 | 246 | 8.0 | 11.3 | 0.00 | 0.00 | 0.00 | 60 | 988.1 |
| 20260505190431 | 28 | 178 | 8.0 | 12.9 | 0.00 | 0.00 | 0.00 | 59 | 988.1 |
| 20260505185931 | 28 | 222 | 8.0 | 9.7 | 0.00 | 0.00 | 0.00 | 60 | 988.1 |
| 20260505185432 | 28 | 260 | 4.8 | 9.7 | 0.00 | 0.00 | 0.00 | 60 | 988.1 |
| 20260505184932 | 28 | 237 | 4.8 | 11.3 | 0.00 | 0.00 | 0.00 | 60 | 988.1 |
| 20260505184431 | 28 | 262 | 3.2 | 14.5 | 0.00 | 0.00 | 0.00 | 62 | 988.1 |
| 20260505183931 | 28 | 214 | 6.4 | 12.9 | 0.00 | 0.00 | 0.00 | 62 | 988.1 |
| 20260505183431 | 27 | 284 | 3.2 | 11.3 | 0.00 | 0.00 | 0.00 | 63 | 988.1 |
| 20260505182932 | 27 | 212 | 9.7 | 12.9 | 0.00 | 0.00 | 0.00 | 62 | 988.5 |
| 20260505182431 | 27 | 238 | 4.8 | 11.3 | 0.00 | 0.00 | 0.00 | 62 | 988.1 |
| 20260505181931 | 27 | 263 | 3.2 | 14.5 | 0.00 | 0.00 | 0.00 | 62 | 988.1 |
| 20260505181434 | 27 | 157 | 6.4 | 12.9 | 0.00 | 0.00 | 0.00 | 63 | 988.1 |
| 20260505180932 | 27 | 237 | 4.8 | 8.0 | 0.00 | 0.00 | 0.00 | 64 | 988.1 |
| 20260505180432 | 27 | 233 | 4.8 | 8.0 | 0.00 | 0.00 | 0.00 | 63 | 988.5 |
| 20260505175932 | 27 | 240 | 4.8 | 8.0 | 0.00 | 0.00 | 0.00 | 64 | 988.1 |
| 20260505175431 | 27 | 264 | 4.8 | 9.7 | 0.00 | 0.00 | 0.00 | 64 | 988.1 |
| 20260505174931 | 27 | 241 | 1.6 | 11.3 | 0.00 | 0.00 | 0.00 | 63 | 988.1 |
| 20260505174431 | 27 | 236 | 6.4 | 14.5 | 0.00 | 0.00 | 0.00 | 63 | 988.1 |
| 20260505173931 | 27 | 213 | 6.4 | 16.1 | 0.00 | 0.00 | 0.00 | 63 | 988.1 |
| 20260505173432 | 27 | 192 | 1.6 | 11.3 | 0.00 | 0.00 | 0.00 | 64 | 988.1 |
| 20260505172932 | 27 | 256 | 6.4 | 11.3 | 0.00 | 0.00 | 0.00 | 64 | 988.1 |
| 20260505172431 | 27 | 195 | 8.0 | 9.7 | 0.00 | 0.00 | 0.00 | 65 | 988.5 |
| 20260505171932 | 27 | 257 | 6.4 | 12.9 | 0.00 | 0.00 | 0.00 | 64 | 988.1 |
| 20260505171432 | 27 | 221 | 4.8 | 12.9 | 0.00 | 0.00 | 0.00 | 64 | 988.1 |
| 20260505170931 | 26 | 215 | 8.0 | 8.0 | 0.00 | 0.00 | 0.00 | 66 | 988.5 |
| 20260505170432 | 26 | 269 | 3.2 | 8.0 | 0.00 | 0.00 | 0.00 | 66 | 988.1 |
| 20260505165931 | 26 | 238 | 6.4 | 12.9 | 0.00 | 0.00 | 0.00 | 67 | 988.5 |
| 20260505165432 | 26 | 209 | 4.8 | 9.7 | 0.00 | 0.00 | 0.00 | 68 | 988.5 |
| 20260505164932 | 26 | 210 | 4.8 | 12.9 | 0.00 | 0.00 | 0.00 | 68 | 988.5 |
| 20260505164431 | 26 | 236 | 3.2 | 12.9 | 0.00 | 0.00 | 0.00 | 68 | 988.5 |
| 20260505163932 | 26 | 227 | 6.4 | 11.3 | 0.00 | 0.00 | 0.00 | 68 | 988.5 |
| 20260505163431 | 25 | 231 | 6.4 | 6.4 | 0.00 | 0.00 | 0.00 | 70 | 988.1 |
| 20260505162931 | 25 | 212 | 6.4 | 16.1 | 0.00 | 0.00 | 0.00 | 69 | 988.1 |
| 20260505162433 | 26 | 190 | 6.4 | 14.5 | 0.00 | 0.00 | 0.00 | 69 | 988.1 |
| 20260505161932 | 26 | 160 | 6.4 | 16.1 | 0.00 | 0.00 | 0.00 | 68 | 988.1 |
| 20260505161431 | 25 | 271 | 1.6 | 11.3 | 0.00 | 0.00 | 0.00 | 69 | 987.8 |
| 20260505160931 | 25 | 220 | 8.0 | 16.1 | 0.00 | 0.00 | 0.00 | 70 | 988.1 |
| 20260505160431 | 25 | 272 | 3.2 | 12.9 | 0.00 | 0.00 | 0.00 | 70 | 988.1 |
| 20260505152931 | 24 | 137 | 3.2 | 11.3 | 0.00 | 0.00 | 0.00 | 74 | 988.1 |
| 20260505152431 | 23 | 211 | 4.8 | 8.0 | 0.00 | 0.00 | 0.00 | 75 | 988.1 |
| 20260505151932 | 24 | 215 | 4.8 | 11.3 | 0.00 | 0.00 | 0.00 | 75 | 988.1 |
| 20260505151432 | 24 | 236 | 6.4 | 11.3 | 0.00 | 0.00 | 0.00 | 74 | 988.1 |
| 20260505150931 | 24 | 197 | 3.2 | 14.5 | 0.00 | 0.00 | 0.00 | 73 | 987.8 |
| 20260505150432 | 23 | 207 | 8.0 | 8.0 | 0.00 | 0.00 | 0.00 | 76 | 988.1 |
| 20260505140432 | 22 | 334 | 1.6 | 20.9 | 0.00 | 0.00 | 0.00 | 81 | 987.8 |
| 20260505124931 | 21 | 214 | 4.8 | 24.1 | 0.00 | 0.00 | 0.00 | 85 | 987.8 |
| 20260505124434 | 21 | 127 | 4.8 | 11.3 | 0.00 | 0.00 | 0.00 | 85 | 987.5 |
| 20260505123932 | 21 | 151 | 6.4 | 11.3 | 0.00 | 0.00 | 0.00 | 85 | 987.5 |
| 20260505123431 | 21 | 151 | 6.4 | 11.3 | 0.00 | 0.00 | 0.00 | 85 | 987.5 |
| 20260505122931 | 21 | 201 | 8.0 | 14.5 | 0.00 | 0.00 | 0.00 | 85 | 987.5 |
| 20260505122432 | 21 | 204 | 11.3 | 16.1 | 0.00 | 0.00 | 0.00 | 85 | 987.1 |
| 20260505121932 | 21 | 163 | 3.2 | 11.3 | 0.00 | 0.00 | 0.00 | 85 | 987.5 |
| 20260505121431 | 21 | 172 | 4.8 | 11.3 | 0.00 | 0.00 | 0.00 | 85 | 987.1 |
| 20260505120934 | 21 | 229 | 4.8 | 11.3 | 0.00 | 0.00 | 0.00 | 85 | 987.1 |
| 20260505120432 | 21 | 148 | 1.6 | 9.7 | 0.00 | 0.00 | 0.00 | 85 | 987.1 |
| 20260505115932 | 21 | 178 | 12.9 | 14.5 | 0.00 | 0.00 | 0.00 | 85 | 987.1 |
| 20260505115432 | 21 | 175 | 8.0 | 8.0 | 0.00 | 0.00 | 0.00 | 85 | 987.1 |
| 20260505114933 | 21 | 201 | 8.0 | 17.7 | 0.00 | 0.00 | 0.00 | 85 | 987.1 |
| 20260505114431 | 21 | 176 | 4.8 | 8.0 | 0.00 | 0.00 | 0.00 | 85 | 987.1 |
| 20260505113445 | 21 | 144 | 4.8 | 14.5 | 0.00 | 0.00 | 0.00 | 85 | 986.8 |
| 20260505112931 | 21 | 162 | 6.4 | 11.3 | 0.00 | 0.00 | 0.00 | 84 | 986.8 |
| 20260505112431 | 21 | 162 | 8.0 | 14.5 | 0.00 | 0.00 | 0.00 | 85 | 987.1 |
| 20260505111932 | 21 | 186 | 0.0 | 9.7 | 0.00 | 0.00 | 0.00 | 84 | 986.8 |
| 20260505111431 | 21 | 189 | 4.8 | 12.9 | 0.00 | 0.00 | 0.00 | 85 | 986.8 |
| 20260505110931 | 21 | 146 | 4.8 | 8.0 | 0.00 | 0.00 | 0.00 | 85 | 986.8 |
| 20260505110431 | 21 | 258 | 3.2 | 9.7 | 0.00 | 0.00 | 0.00 | 85 | 986.8 |
| 20260505101931 | 21 | 141 | 12.9 | 20.9 | 0.00 | 0.00 | 0.00 | 83 | 986.8 |
| 20260505101431 | 21 | 183 | 8.0 | 14.5 | 0.00 | 0.00 | 0.00 | 83 | 986.8 |
| 20260505100931 | 21 | 199 | 4.8 | 16.1 | 0.00 | 0.00 | 0.00 | 83 | 986.8 |
| 20260505100433 | 21 | 225 | 4.8 | 20.9 | 0.00 | 0.00 | 0.00 | 83 | 986.8 |
| 20260505095931 | 21 | 208 | 6.4 | 8.0 | 0.00 | 0.00 | 0.00 | 83 | 987.1 |
| 20260505095434 | 21 | 205 | 3.2 | 17.7 | 0.00 | 0.00 | 0.00 | 83 | 987.1 |
| 20260505094932 | 21 | 176 | 4.8 | 11.3 | 0.00 | 0.00 | 0.00 | 83 | 986.8 |
| 20260505094432 | 21 | 212 | 12.9 | 22.5 | 0.00 | 0.00 | 0.00 | 82 | 986.8 |
| 20260505093931 | 21 | 177 | 8.0 | 17.7 | 0.00 | 0.00 | 0.00 | 82 | 986.8 |
| 20260505093433 | 22 | 192 | 4.8 | 14.5 | 0.00 | 0.00 | 0.00 | 82 | 987.1 |
| 20260505092933 | 22 | 173 | 8.0 | 11.3 | 0.00 | 0.00 | 0.00 | 82 | 987.1 |
| 20260505092432 | 22 | 207 | 3.2 | 16.1 | 0.00 | 0.00 | 0.00 | 81 | 987.1 |
| 20260505091448 | 22 | 215 | 8.0 | 12.9 | 0.00 | 0.00 | 0.00 | 81 | 987.1 |
| 20260505090933 | 22 | 137 | 6.4 | 17.7 | 0.00 | 0.00 | 0.00 | 81 | 987.1 |
| 20260505090437 | 22 | 236 | 3.2 | 19.3 | 0.00 | 0.00 | 0.00 | 81 | 987.5 |